{"data":{"norad_id":60390,"epoch":"2026-05-25T03:07:24.146112Z","epoch_age_seconds":64048,"freshness":"FRESH","line1":"1 60390U 24140M   26145.13014058  .00000060  00000+0  73642-4 0  9990","line2":"2 60390  88.9697 282.3299 0015189  95.3220 264.9664 13.51008144 89301","mean_motion":13.51008144,"eccentricity":0.0015189,"inclination_deg":88.9697,"raan_deg":282.3299,"arg_perigee_deg":95.322,"mean_anomaly_deg":264.9664,"bstar":7.3642e-5,"rev_number":8930,"period_min":106.5870702849,"perigee_km":1057.2408834797,"apogee_km":1079.8624342877,"semimajor_km":7446.6886588837,"source":"CELESTRAK","updated_at":"2026-05-25T13:38:02.042382Z"}}